#timestamp,LO_Frequency,Hit,StdDev 
1583161215.2,286047004.1,Y
1583161235.1,286046999.9,P
1583161236.0,286046999.9,N
1583161255.8,286047004.3,P
1583161275.7,286047001.4,N
1583161295.5,286047001.2,N
1583161315.3,286046998.6,N
1583161335.2,286046998.1,N
1583161355.0,286046996.8,N
1583161355.9,286046996.8,N
1583161375.7,286046995.3,N
1583161395.6,286046998.3,N
1583161415.4,286047000.8,N
1583161435.3,286046998.4,N
1583161455.1,286046999.5,N
1583161456.0,286046999.5,N
1583161475.8,286046998.4,N
1583161495.7,286046999.1,N
1583161515.5,286046998.4,N
1583161535.4,286047000.0,N
1583161555.2,286046998.6,N
1583161575.0,286046997.0,N
1583161575.9,286046997.0,N
1583161595.8,286046997.0,N
1583161615.6,286046999.3,N
1583161635.4,286046997.2,N
1583161655.3,286046997.1,N
1583161675.1,286046997.5,N
1583161695.9,286046995.5,N
1583161715.7,286046995.4,N
1583161735.5,286046997.1,N
1583161755.4,286046997.7,N
1583161775.2,286046997.5,N
1583161795.1,286046995.0,N
1583161796.0,286046995.0,Y
1583161815.8,286046998.7,P
1583161835.6,286046999.4,N
1583161855.5,286046999.5,N
1583161875.3,286047000.9,N
1583161895.1,286047000.3,N
1583161915.9,286047000.0,N
1583161935.7,286047000.8,N
1583161955.6,286047000.1,N
1583161975.4,286046999.7,N
1583161995.2,286047001.1,N
1583162015.1,286046998.4,N
1583162016.0,286046998.4,N
1583162035.8,286046996.5,Y
1583162055.7,286046998.2,P
1583162075.5,286046999.3,N
1583162095.3,286046998.7,N
1583162115.2,286046998.4,N
1583162165.0,286046998.2,E
1583162175.9,286047000.2,N
1583162195.7,286047002.5,P
1583162215.5,286047002.7,N
1583162235.4,286047000.8,N
1583162255.2,286047000.9,N
1583162275.1,286047000.8,N
1583162276.0,286047000.8,N
1583162295.8,286046998.8,N
1583162315.6,286046996.9,N
1583162335.5,286046999.5,N
1583162355.3,286046997.4,N
1583162375.1,286046999.6,N
1583162395.9,286046996.8,N
1583162415.7,286046995.0,N
1583162435.6,286046996.3,N
1583162455.4,286046995.7,N
1583162475.2,286046996.1,N
1583162495.1,286046995.1,N
1583162496.0,286046995.1,N
1583162515.8,286046995.9,N
1583162535.7,286046995.9,N
1583162555.5,286046994.9,N
1583162575.3,286046996.0,N
1583162595.2,286046991.7,Y
1583162615.0,286046995.2,P
1583162615.9,286046995.2,P
1583162635.8,286046996.4,N
1583162655.6,286046995.2,Y
1583162675.4,286046998.9,P
1583162695.3,286047001.2,N
1583162715.1,286047002.8,N
1583162735.8,286047000.6,N
1583162755.7,286047002.8,N
1583162775.5,286047000.1,N
1583162795.4,286046996.7,N
1583162815.2,286046997.0,N
1583162835.0,286046996.6,N
1583162835.9,286046996.6,N
1583162855.8,286046999.6,N
1583162875.6,286046998.3,N
1583162895.5,286047001.1,N
1583162915.3,286046998.5,N
1583162935.1,286046998.7,N
1583162955.9,286047000.3,N
1583162975.7,286047000.9,N
1583162995.5,286047000.0,N
1583163015.4,286046999.8,N
1583163035.2,286047000.5,N
1583163055.1,286046999.9,N
1583163056.0,286046999.9,N
1583163075.8,286046999.4,N
1583163095.6,286046999.6,N
1583163115.5,286046999.0,N
1583163135.5,286046999.0,N
1583163155.3,286046999.3,N
1583163175.2,286046999.4,N
1583163195.9,286046999.4,N
1583163215.7,286046998.9,N
1583163235.6,286046998.5,N
1583163255.4,286046998.8,N
1583163275.2,286047000.4,N
1583163295.1,286047000.4,N
1583163296.0,286047000.4,N
1583163315.8,286047000.6,N
1583163335.7,286046998.3,N
1583163355.5,286046998.4,N
1583163375.3,286047000.4,N
1583163395.2,286047002.4,N
1583163415.0,286047001.7,N
1583163415.9,286047001.7,N
1583163465.8,286047005.4,E
1583163475.7,286047001.6,N
1583163495.6,286046997.2,P
1583163515.4,286046995.7,N
1583163535.2,286046994.9,N
1583163555.1,286046996.9,N
1583163556.0,286046996.9,N
1583163575.8,286047001.0,N
1583163595.6,286047001.2,N
1583163615.5,286046997.6,N
1583163635.3,286046995.3,N
1583163655.2,286046995.6,N
1583163675.9,286046995.5,N
1583163695.7,286046996.0,N
1583163715.6,286046995.5,N
1583163735.4,286046997.3,N
1583163755.3,286046997.2,N
1583163775.1,286046997.6,N
1583163776.0,286046997.6,N
1583163795.8,286046995.5,N
1583163815.7,286046997.5,N
1583163835.5,286046997.2,N
1583163855.4,286046997.8,N
1583163875.2,286046998.5,N
1583163895.0,286047001.0,N
1583163895.9,286047001.0,N
1583163915.8,286046999.1,N
1583163935.6,286046997.9,N
1583163955.5,286046999.1,N
1583163975.3,286047002.8,N
1583163995.1,286047000.5,N
1583164015.9,286046999.2,N
1583164035.7,286046999.1,N
1583164055.6,286046999.5,N
1583164075.4,286046997.0,N
1583164095.2,286046999.5,N
1583164115.1,286047000.9,N
1583164116.0,286047000.9,N
1583164135.8,286047000.2,N
1583164155.6,286047000.3,N
1583164175.5,286047002.5,N
1583164195.3,286046999.7,N
1583164215.2,286047001.1,N
1583164235.9,286046998.6,N
1583164255.7,286046999.6,N
1583164275.6,286046997.0,N
1583164295.4,286046999.0,N
1583164315.3,286046999.7,N
1583164335.1,286046998.5,N
1583164336.0,286046998.5,N
1583164355.8,286046997.7,N
1583164375.7,286046997.8,N
1583164395.5,286046998.5,N
1583164415.3,286047000.7,N
1583164435.2,286046999.8,N
1583164455.0,286047001.0,N
1583164455.9,286047001.0,N
1583164475.8,286047001.1,N
1583164495.6,286046998.6,N
1583164515.4,286046998.7,N
1583164535.3,286046999.5,N
1583164555.1,286046996.6,N
1583164575.9,286046996.7,N
1583164595.7,286046997.2,N
1583164615.6,286046997.8,N
1583164635.4,286046997.5,N
1583164655.2,286046998.7,N
1583164675.1,286047000.0,N
1583164676.0,286047000.0,N
1583164695.8,286046998.4,N
1583164715.6,286046999.2,N
1583164735.5,286046999.2,N
1583164755.3,286046999.1,N
1583164775.2,286046998.6,N
1583164795.9,286047000.6,N
